Regional Weather Roundup
Issued by NWS

Home | Current Version | Previous Version | Graphics & Text | Print | Product List | Glossary On
Versions: 1 2 3 4 5 6 7 8 9 10 11 12 13 14 15 16 17 18 19 20 21 22 23 24 25 26 27 28 29 30 31 32 33 34 35 36 37 38 39 40 41 42 43 44 45 46 47 48 49 50
000
ASUS43 KBIS 231502
RWRND

NORTH DAKOTA REGIONAL WEATHER ROUNDUP
NATIONAL WEATHER SERVICE BISMARCK ND
900 AM CST MON JAN 23 2017

NOTE: "FAIR" INDICATES FEW OR NO CLOUDS BELOW 12,000 FEET WITH NO
SIGNIFICANT WEATHER AND/OR OBSTRUCTIONS TO VISIBILITY.


NDZ001>003-009>011-017-231600-
NORTHWEST NORTH DAKOTA

CITY           SKY/WX    TMP DP  RH WIND       PRES   REMARKS
WILLISTON      CLOUDY    25  20  81 N5        29.78R WCI  19
MINOT          CLOUDY    26  21  81 W10       29.76R WCI  16
MINOT AFB      CLOUDY    25  20  83 W10       29.75S WCI  14
$$

NDZ018>021-031>035-040>046-231600-
SOUTHWEST NORTH DAKOTA

CITY           SKY/WX    TMP DP  RH WIND       PRES   REMARKS
BISMARCK       CLOUDY    29  23  78 CALM      29.80F
DICKINSON      CLOUDY    23  19  85 E6        29.71F WCI  16
GARRISON         N/A     27  23  85 W6        29.76S
HETTINGER ARPT FOG       22  21  96 E7        29.74F VSB 1/4 WCI  13
$$

NDZ004>008-012>016-024-026-027-054-231600-
NORTHEAST NORTH DAKOTA

CITY           SKY/WX    TMP DP  RH WIND       PRES   REMARKS
GRAND FORKS    CLOUDY    31  24  75 W12       29.78R
GRND FRKS AFB  CLOUDY    30  23  77 W8        29.78R
DEVILS LAKE    CLOUDY    26  22  84 W10       29.78R WCI  16
$$

NDZ022-023-025-028>030-036>039-047>053-231600-
SOUTHEAST NORTH DAKOTA

CITY           SKY/WX    TMP DP  RH WIND       PRES   REMARKS
FARGO          CLOUDY    35  28  75 W8        29.81R
JAMESTOWN      CLOUDY    29  23  78 W8        29.81R
$$




USA.gov is the U.S. government's official web portal to all federal, state and local government web resources and services.